Theta_e
298 300 299 299 302 302 303 304 304 302 302 303 302 302 301 301 300 299 300 300 301 302 303 303 305 308 316 322 328 331 332 333 331 329 328 329 331 331 330 327 318 312 310 317
298 299 299 300 301 301 302 302 302 301 301 302 301 301 301 301 301 300 300 300 300 301 302 303 307 309 313 317 327 330 331 332 332 330 328 328 329 329 330 330 329 328 324 316
298 298 299 299 301 301 301 301 301 301 302 301 301 302 301 301 301 301 301 301 301 301 301 302 302 307 310 314 320 330 331 331 331 330 330 330 329 328 329 329 329 328 328 323
298 298 298 298 299 300 300 300 301 301 302 302 301 301 299 300 300 300 301 301 301 301 301 302 302 304 308 309 314 321 328 328 328 331 329 330 329 328 328 327 327 328 327 327
297 297 297 296 300 301 300 300 301 301 302 303 303 303 300 300 300 300 300 301 301 301 301 301 302 303 307 309 316 321 323 329 327 331 330 330 329 329 329 329 329 326 327 327
297 296 297 298 300 299 300 300 301 302 303 302 302 302 300 299 301 300 299 300 301 301 301 301 301 302 304 312 319 320 321 324 327 330 328 329 329 329 329 329 327 327 327 326
296 296 298 299 298 300 301 299 295 296 297 299 301 303 303 302 302 302 302 302 301 300 301 301 301 302 304 312 315 321 323 321 322 327 328 328 328 329 329 328 328 328 328 326
293 295 296 296 298 300 301 302 301 303 299 301 303 305 306 299 296 297 297 301 302 300 301 301 302 303 304 310 321 323 323 322 322 328 328 328 328 328 328 328 328 329 328 327
295 294 297 297 299 300 298 301 298 299 300 303 306 305 305 295 293 294 298 302 300 300 300 301 301 302 305 309 320 323 323 319 321 324 327 327 328 329 329 328 328 328 327 327
296 295 297 298 297 299 298 297 295 299 298 300 304 304 296 292 291 291 306 302 299 300 301 301 302 303 305 312 321 324 324 322 322 324 327 327 327 327 327 327 327 324 323 324
296 296 297 297 294 296 295 293 294 295 297 302 304 301 293 290 289 298 306 304 299 300 301 301 307 309 313 318 320 323 323 324 326 326 326 326 326 326 325 325 325 323 321 320
296 296 295 296 296 296 294 292 293 294 299 297 301 300 291 288 288 301 305 305 304 304 305 307 309 314 317 319 322 323 322 324 324 324 324 325 323 321 321 317 316 314 316 313
296 296 294 295 298 294 294 291 291 295 296 294 293 293 289 286 286 292 299 300 299 299 300 303 305 306 311 312 316 317 318 319 319 320 321 318 316 313 312 311 310 310 307 307
295 296 296 296 294 293 292 292 291 290 287 291 291 288 287 284 284 287 294 295 295 295 295 295 296 299 301 303 307 310 310 308 311 313 313 311 309 306 306 305 303 302 302 299
295 293 295 293 294 294 292 292 290 288 287 289 289 288 286 283 283 284 288 289 290 291 291 291 292 295 295 298 302 302 304 303 303 305 304 303 302 301 301 299 299 298 297 297
294 290 290 292 295 295 295 292 291 288 287 287 289 289 285 283 281 281 283 284 286 286 287 288 291 293 294 296 298 299 299 298 299 299 298 298 298 298 297 297 297 297 296 296
294 296 288 289 294 297 295 293 291 289 287 286 285 284 284 282 280 279 279 280 281 283 284 285 288 293 296 297 298 299 298 299 298 298 297 297 297 297 296 296 296 295 294 293
295 296 289 288 288 298 297 293 291 290 288 285 284 283 284 284 280 279 278 279 279 281 283 286 289 291 294 296 297 297 299 298 298 297 297 296 297 296 295 295 293 291 289 287
293 292 289 290 289 300 297 293 290 289 291 285 283 282 282 288 286 280 278 279 279 281 284 286 292 294 295 296 297 298 298 297 295 294 293 292 290 289 288 288 286 285 285 283
294 290 288 282 287 295 295 291 289 289 295 285 283 281 280 285 285 279 278 280 280 285 288 290 289 289 289 289 290 291 290 289 289 288 287 287 287 286 285 283 282 281 281 280
292 288 286 284 288 292 289 288 289 295 294 285 283 281 279 278 277 277 279 282 284 285 286 288 289 289 287 288 289 290 288 287 285 285 284 284 283 282 281 281 281 280 280 279
295 292 289 284 290 300 288 289 290 287 286 284 283 281 279 278 279 280 281 283 284 285 286 286 286 286 286 286 286 285 284 282 283 283 283 281 280 280 280 280 279 279 279 279
293 293 290 289 289 289 286 286 285 286 285 284 283 282 280 280 280 281 281 282 282 283 283 283 284 283 283 283 283 282 280 280 281 281 280 280 280 280 279 279 279 279 278 278
293 293 292 290 289 288 286 285 285 285 285 284 284 283 282 281 280 280 280 281 281 281 282 281 282 281 281 280 281 280 280 280 280 280 279 279 279 278 278 278 278 277 277 276
293 293 293 292 290 288 289 286 286 286 286 285 284 284 283 282 282 281 281 280 280 281 281 282 282 281 280 279 279 279 279 279 280 279 278 278 277 277 277 277 276 275 275 274
293 292 293 292 294 291 291 288 287 287 286 285 285 285 284 283 282 282 282 281 281 281 280 280 279 279 278 278 278 277 278 278 278 278 277 277 277 276 276 275 275 274 274 274
Wind_Speed
6 3 8 11 12 17 18 18 20 19 17 18 18 21 19 17 15 18 28 21 19 23 22 15 16 20 15 17 20 34 48 46 40 41 37 41 41 37 34 31 27 26 29 31
4 11 12 7 9 14 15 21 23 20 16 12 15 21 16 13 12 18 24 27 21 22 27 18 9 13 22 18 21 33 38 44 43 39 40 42 37 36 34 32 31 30 29 31
6 12 15 12 10 16 16 16 19 20 18 16 15 21 17 16 21 28 31 34 24 22 26 22 15 18 24 20 14 26 33 47 46 42 41 38 35 35 36 36 32 32 29 29
5 5 13 13 14 11 13 5 6 12 9 6 4 9 8 5 12 12 24 29 26 25 24 24 21 16 20 21 20 21 26 46 37 42 41 40 39 40 38 35 34 34 33 30
7 14 14 7 6 9 9 9 11 15 14 9 13 6 5 8 13 17 16 26 25 26 26 25 22 14 17 18 23 21 19 19 38 41 42 40 37 36 35 35 33 33 34 33
14 10 2 3 16 15 17 17 16 12 6 5 10 9 4 2 3 5 6 18 25 24 25 26 20 17 13 20 22 24 17 20 22 34 42 35 35 35 35 34 35 33 35 38
11 6 2 4 9 3 7 5 4 4 1 5 3 8 10 13 14 12 15 20 24 22 22 22 22 20 17 19 20 25 25 18 20 27 29 31 32 38 37 34 34 36 35 34
4 8 7 4 4 7 11 3 3 7 2 3 5 4 1 19 26 35 34 26 21 20 22 22 21 19 17 15 18 24 25 20 12 23 27 27 29 31 34 33 36 34 33 33
4 5 4 8 7 5 10 9 13 7 15 5 3 2 4 29 28 22 20 17 15 19 19 21 20 18 14 14 18 19 19 5 16 23 29 27 26 28 31 29 30 33 33 35
3 7 4 11 5 4 11 12 6 3 5 5 2 6 10 30 32 34 5 6 14 18 14 12 12 13 14 12 16 15 20 14 9 21 23 26 22 23 26 27 27 27 28 32
4 3 7 5 5 13 9 10 5 4 3 3 6 5 15 25 27 24 13 12 7 12 7 6 12 16 16 13 13 11 14 14 18 23 18 14 15 18 19 22 25 23 21 24
2 3 4 3 6 6 9 14 5 1 4 4 3 4 23 26 25 19 15 23 28 32 31 28 24 26 25 24 20 19 19 14 12 8 8 6 6 7 10 6 4 5 11 12
8 3 5 7 1 10 7 21 17 5 3 11 5 7 19 24 26 35 24 33 40 40 40 37 37 37 36 36 34 30 27 22 19 15 12 11 10 13 15 16 16 15 15 13
7 2 3 2 3 8 12 22 21 13 4 7 8 13 23 28 26 26 28 39 42 42 42 42 44 44 41 41 41 36 32 30 26 22 21 24 24 25 25 23 23 21 20 20
3 3 3 4 8 1 17 14 19 18 15 6 10 13 20 22 20 24 27 36 42 43 45 41 41 48 45 45 42 40 38 37 36 36 34 34 31 29 29 29 29 27 26 25
3 3 4 4 1 0 12 21 17 16 17 7 11 14 19 25 26 30 37 37 40 40 38 41 50 48 48 48 46 44 42 42 40 41 41 37 35 33 32 30 29 26 25 24
4 3 3 5 4 4 4 19 12 11 16 8 10 9 14 16 23 36 35 36 36 37 38 44 50 51 49 48 46 45 42 40 40 40 37 35 33 32 30 28 27 26 25 24
6 5 2 3 5 9 4 11 3 5 21 21 13 13 12 8 25 38 40 37 38 39 42 47 47 48 47 44 42 41 39 38 37 37 34 31 29 30 28 27 27 25 25 26
7 2 4 4 4 3 2 10 7 6 12 20 18 18 24 9 15 40 38 37 35 40 43 45 45 45 44 44 40 39 40 38 37 36 33 31 29 29 28 28 27 27 25 25
5 5 4 4 5 4 4 14 15 2 11 25 25 23 24 20 14 7 27 34 38 42 44 44 43 43 43 43 40 41 41 39 38 34 32 30 28 28 28 28 27 26 25 25
7 5 4 4 3 3 2 22 5 6 2 15 20 20 21 10 8 11 24 33 37 40 40 40 39 42 41 38 36 39 37 38 34 30 28 28 27 27 27 25 25 24 24 23
2 4 3 2 5 4 24 4 6 2 2 6 11 11 13 15 18 23 28 32 34 37 37 37 38 39 37 35 33 36 37 31 27 26 25 27 28 27 26 25 25 24 23 22
2 2 2 1 4 3 7 7 3 4 2 2 3 4 8 13 18 21 25 29 31 32 33 33 33 33 33 31 32 34 33 27 26 27 28 28 26 25 24 23 23 22 22 23
1 3 2 2 3 2 1 1 0 1 3 4 5 7 11 16 19 22 24 27 28 28 29 28 29 31 33 31 30 31 28 25 24 26 27 25 25 24 23 23 23 23 24 24
3 5 4 1 2 4 7 5 5 6 6 7 9 10 13 16 19 21 22 23 25 25 25 25 26 28 30 28 28 27 24 22 22 24 24 24 24 24 25 25 26 26 26 25
10 6 4 4 14 5 7 13 11 11 10 10 11 13 14 14 18 19 21 22 22 22 22 23 25 26 27 26 26 25 22 20 21 23 24 24 24 23 23 22 22 22 23 23
Wind_Direction
302 270 254 268 251 263 280 276 268 270 279 277 270 269 271 269 254 262 269 264 259 271 277 294 247 245 266 263 240 216 208 207 207 200 199 218 211 211 214 217 218 216 218 214
309 277 279 270 291 283 272 275 271 277 268 258 260 261 264 256 246 242 259 269 256 261 273 280 276 241 240 263 240 216 215 214 210 206 200 212 216 215 218 216 220 224 225 220
267 266 299 303 286 291 275 267 277 276 294 272 273 274 263 249 246 246 249 253 253 254 264 268 267 229 230 247 258 223 204 213 213 206 209 210 213 220 220 219 220 224 230 230
268 274 320 316 302 296 287 255 285 293 289 279 152 288 244 241 233 228 238 242 238 238 251 255 256 233 230 236 242 253 230 219 220 208 215 212 214 215 220 220 222 225 234 235
268 306 332 324 286 307 264 301 283 277 276 283 235 264 265 228 245 241 226 233 234 227 236 244 248 243 228 238 230 238 240 223 225 215 217 215 218 226 228 225 226 235 234 236
292 294 212 266 298 287 278 292 279 260 246 246 240 191 306 198 283 308 247 240 235 227 231 238 237 239 233 220 217 228 243 241 243 218 225 222 224 229 228 228 235 237 235 237
329 314 8 331 320 296 325 293 319 337 349 229 352 182 260 330 356 334 320 295 254 235 230 225 226 225 227 205 217 227 226 232 236 244 236 230 236 236 240 240 240 249 236 243
340 328 11 331 337 296 306 340 350 298 268 273 105 244 235 9 342 326 312 287 270 222 218 213 212 215 219 218 206 221 220 230 271 262 243 233 237 243 248 243 238 244 254 258
309 274 284 298 314 327 332 324 295 245 256 249 210 349 187 346 328 322 280 250 219 204 215 218 223 221 211 213 208 216 213 260 237 274 242 245 247 248 243 244 249 254 258 260
285 293 295 322 12 317 341 345 329 337 337 318 327 70 354 344 330 327 35 160 180 175 188 191 205 208 199 188 187 202 215 253 241 256 242 231 236 236 242 250 256 261 259 257
278 233 303 5 9 357 2 355 314 291 255 296 339 94 7 340 330 325 31 50 142 142 132 129 132 162 173 151 136 169 197 201 214 227 237 210 228 236 243 243 256 259 266 275
332 285 291 264 282 338 37 358 319 268 340 322 274 73 5 345 338 360 49 74 74 75 78 96 107 110 109 106 118 125 125 156 139 149 197 221 225 204 230 234 260 326 307 339
358 336 326 350 331 11 13 4 358 314 335 23 21 338 345 348 359 3 41 62 66 69 77 89 94 92 96 99 100 103 100 103 104 107 110 99 54 56 59 59 53 51 51 53
352 301 256 264 125 28 7 13 12 17 44 331 22 353 355 355 359 356 28 57 65 66 68 70 74 83 90 91 92 92 94 95 97 96 93 89 83 83 82 81 77 76 74 75
26 294 324 310 150 309 34 13 15 23 8 37 322 25 8 359 350 359 33 52 60 61 63 67 71 82 83 90 93 94 95 94 94 92 89 87 88 87 86 86 84 85 83 81
339 289 17 306 42 253 26 21 15 19 8 353 1 38 359 2 12 26 34 42 51 56 61 68 77 86 87 90 91 93 94 93 94 91 90 91 90 89 88 88 85 83 82 80
322 310 21 303 302 280 357 15 14 23 28 351 17 326 335 10 22 25 24 37 45 52 59 69 80 87 89 92 94 93 94 94 91 91 91 91 92 90 88 87 85 81 78 74
292 312 83 281 5 38 306 20 352 6 29 18 9 357 355 54 45 38 34 42 49 58 69 80 87 91 93 94 94 97 94 90 88 88 87 85 83 83 82 79 76 74 70 66
209 321 40 67 0 172 35 4 354 7 28 14 3 360 1 39 61 39 39 60 65 75 82 85 89 91 93 92 92 91 87 86 86 82 82 82 81 82 82 78 75 71 68 66
40 49 85 18 65 57 262 336 335 272 33 7 5 6 4 19 59 17 43 68 76 81 85 87 88 90 90 90 91 89 88 86 84 84 84 82 80 77 74 73 71 69 65 64
342 7 62 1 62 317 347 323 322 53 252 358 3 13 23 45 51 55 71 76 80 84 86 90 92 89 88 87 86 83 82 79 82 83 82 80 77 74 74 73 71 68 67 66
336 351 345 2 42 17 356 354 72 136 60 13 19 42 59 80 84 82 83 84 87 87 88 86 86 86 86 85 83 84 82 84 83 82 81 82 81 80 78 74 72 67 61 56
15 146 185 139 209 289 8 68 65 102 144 58 67 73 93 92 90 89 89 90 89 89 89 89 89 89 86 84 83 83 86 89 88 86 82 79 78 77 74 67 62 57 50 44
278 172 120 93 250 271 225 40 35 115 165 150 133 122 115 106 104 100 98 96 95 94 93 92 91 87 85 82 81 83 88 87 85 83 81 77 72 66 60 56 52 45 42 38
209 145 134 289 283 268 253 213 190 161 152 145 141 136 130 125 116 110 105 101 96 92 91 90 89 89 89 89 87 86 85 85 85 83 80 74 67 60 52 45 42 39 38 33
186 176 173 209 184 153 172 178 173 166 155 153 153 147 140 133 124 120 111 105 102 99 97 95 93 95 98 98 95 91 86 79 75 75 70 63 56 50 46 42 40 38 34 28